This demonstration page uses our WeatherBlox Daily Observations layout. Learn more.

Left ArrowRight Arrow

40.97296, -117.73568

Hourly Observations for June 7, 2016

Temp ( °F °C ) Dew Point ( °F °C ) Humidity (%) Winds ( mph kmh ) Pressure ( in mb ) Visibility ( mi km ) Precip ( " mm )
12:56 am 00:56 Clear 63 17.2 41 5 45 45 ESE 6 9 29.75 1008 10 16 0.00 0.00
1:56 am 01:56 Clear 65 18.3 42 5.6 43 43 Calm 29.75 1007 10 16 0.00 0.00
2:56 am 02:56 Clear 57 13.9 41 5 55 55 SE 3 6 29.76 1008 10 16 0.00 0.00
3:56 am 03:56 Clear 55 12.8 42 5.6 62 62 ESE 5 7 29.77 1008 10 16 0.00 0.00
4:56 am 04:56 Clear 53 11.7 41 5 64 64 Calm 29.80 1009 10 16 0.00 0.00
5:56 am 05:56 Sunny 50 10 39 3.9 66 66 Calm 29.82 1010 10 16 0.00 0.00
6:56 am 06:56 Sunny 59 15 43 6.1 56 56 SSE 5 7 29.82 1010 10 16 0.00 0.00
7:56 am 07:56 Sunny 67 19.4 44 6.7 44 44 Calm 29.83 1010 10 16 0.00 0.00
8:56 am 08:56 Sunny 76 24.4 43 6.1 31 31 VRB 3 6 29.82 1010 10 16 0.00 0.00
9:56 am 09:56 Sunny 81 27.2 42 5.6 25 25 Calm 29.81 1010 10 16 0.00 0.00
10:56 am 10:56 Sunny 87 30.6 42 5.6 21 21 VRB 6 9 29.80 1009 10 16 0.00 0.00
11:56 am 11:56 Sunny 89 31.7 41 5 19 19 S 6 9 29.80 1009 10 16 0.00 0.00
12:56 pm 12:56 Sunny 90 32.2 40 4.4 17 17 W 5 7 29.79 1009 10 16 0.00 0.00
1:56 pm 13:56 Mostly Sunny 93 33.9 39 3.9 15 15 SSW 8 13 29.76 1008 10 16 0.00 0.00
2:56 pm 14:56 Mostly Sunny 90 32.2 38 3.3 16 16 NNW 5 7 29.77 1008 10 16 0.00 0.00
3:56 pm 15:56 Mostly Sunny 92 33.3 37 2.8 14 14 W 15 24 29.76 1008 10 16 0.00 0.00
4:56 pm 16:56 Sunny 93 33.9 39 3.9 15 15 SW 14 22 29.75 1008 10 16 0.00 0.00
5:56 pm 17:56 Sunny 92 33.3 35 1.7 13 13 WNW 15 24 29.75 1007 10 16 0.00 0.00
6:56 pm 18:56 Sunny 90 32.2 37 2.8 15 15 W 7 11 29.74 1007 10 16 0.00 0.00
7:56 pm 19:56 Sunny 86 30 40 4.4 20 20 WNW 6 9 29.74 1007 10 16 0.00 0.00
8:56 pm 20:56 Partly Cloudy 78 25.6 41 5 27 27 Calm 29.76 1008 10 16 0.00 0.00
9:56 pm 21:56 Clear 71 21.7 41 5 34 34 W 5 7 29.78 1008 10 16 0.00 0.00
10:56 pm 22:56 Clear 70 21.1 40 4.4 34 34 WSW 5 7 29.78 1008 10 16 0.00 0.00
11:56 pm 23:56 Clear 73 22.8 46 7.8 38 38 SW 3 6 29.78 1009 10 16 0.00 0.00

Powered by AerisWeather